Kosmos-2547

operational
NORAD ID: 46805 Int'l Des: 2020-075 Owner: VVKOV/IACG Country: RU Constellation: GLONASS
MEOCIRCULAR

Über Kosmos-2547

Beschreibung wird geladen...

Live-Position

3D-Globus wird geladen...

Nächste Überflüge

Höhenverlauf

Altitude vs Time

uPlot chart will show altitude changes over time

Zweizeiliger Elementsatz

1 46805U 20075A 26033.73527080 .00000033 00000-0 00000+0 0 9998
2 46805 64.5995 196.9593 0006238 227.5488 132.3691 2.13100003 41044
Epoch: 2. Feb. 2026 • Age: 26 hours

Aktueller Status

Höhe 19149.3 km
Geschwindigkeit 3.95 km/s
Subsatellitenpunkt 62.17°N, 111.44°W
Startdatum 25. Okt. 2020
Alter 5.2 years
Typ other

Technische Details

Klassifizierung Payload
Masse 974.00 kg
Trockenmasse 800.00 kg
Gesamtmasse 974.00 kg
Länge 2.00 m
Durchmesser 1.00 m
Spannweite 5.00 m
Form Box + 2 Pan
Hersteller RESH
Bus-Typ Ekspress-1000
Phasenstatus In Orbit
Besitzer/Staat VVKOV/IACG/RU

Große Konstellationen

Loading constellations...